Probability
98 96 94 94 96 97 97 98 98 98 99 100 100 100 100 100 100 100 100 100 100 100 100 100 100 100 100 99 100 100 99 98 98 98 87 66 43 35 47 68 77 70 64
85 78 72 72 75 77 78 81 89 94 96 98 100 100 100 100 100 100 100 100 100 100 100 100 100 100 99 99 99 100 99 97 97 94 82 62 44 35 42 64 79 78 74
53 42 34 33 36 39 41 50 66 78 86 93 97 97 98 98 99 100 100 99 100 100 100 100 100 99 97 97 98 99 96 93 89 82 71 55 43 36 37 54 74 84 85
19 14 8 7 9 10 13 26 44 60 75 87 92 93 91 90 95 98 100 100 100 100 100 100 99 98 96 95 94 93 88 79 69 60 51 42 36 30 24 31 50 63 67
3 3 2 1 1 2 5 17 37 58 74 83 89 90 86 85 90 95 99 100 100 100 100 98 97 96 93 88 83 77 68 55 41 33 29 25 22 17 10 10 17 25 29
0 0 0 0 0 1 4 16 41 66 76 79 82 86 87 88 90 93 96 98 99 100 99 97 95 92 84 73 63 51 38 25 16 12 11 10 10 8 5 2 2 4 6
0 0 1 1 1 2 6 23 48 67 69 65 65 72 80 86 87 87 89 92 95 99 99 96 91 81 65 49 36 24 14 6 3 3 3 2 3 3 2 1 0 0 1
0 0 1 2 2 5 14 31 50 57 51 45 45 51 58 64 68 72 75 79 84 89 89 86 77 60 39 23 14 8 3 1 0 0 0 0 0 1 1 0 0 0 0
0 0 1 1 2 7 19 33 41 42 34 28 27 30 33 36 41 47 52 57 63 65 63 57 48 33 17 7 4 2 1 0 0 0 0 0 0 0 0 0 0 0 0
0 0 0 0 2 9 21 31 34 33 25 18 14 14 14 14 16 21 25 30 34 35 32 25 18 11 6 2 1 0 0 0 0 0 0 0 0 0 0 0 0 0 0
0 0 1 2 5 12 23 33 35 30 21 13 7 5 3 2 3 4 6 8 11 12 10 6 4 2 1 0 0 0 0 0 0 0 0 0 0 0 0 0 0 0 0
0 1 2 5 12 19 26 34 33 25 18 10 4 1 0 0 0 0 0 0 1 1 1 1 1 1 0 0 0 0 0 0 0 0 0 0 0 0 0 0 0 0 0
2 5 9 14 19 26 33 34 28 19 12 7 3 1 1 0 0 0 0 0 0 0 0 0 0 0 0 0 0 0 0 0 0 0 0 0 0 0 0 0 0 0 0
5 9 17 23 25 34 43 41 30 19 10 5 3 2 1 0 0 0 0 0 0 0 0 0 0 0 0 0 0 0 0 0 0 0 0 0 0 0 0 0 0 0 0
3 7 16 23 28 39 50 48 39 27 14 5 3 2 1 0 0 0 0 0 0 0 0 0 0 0 0 0 0 0 0 0 0 0 0 0 0 0 0 0 0 0 0
1 3 9 22 35 44 51 53 48 36 18 5 1 1 0 0 0 0 0 0 0 0 0 0 0 0 0 0 0 0 0 0 0 0 0 0 0 0 0 0 0 0 0
1 2 7 21 40 51 57 60 53 36 17 4 0 0 0 0 0 0 0 0 0 0 0 0 0 0 0 0 0 0 0 0 0 0 0 0 0 0 0 0 0 0 0
2 4 5 15 35 50 56 59 50 31 13 3 0 0 0 0 0 0 0 0 0 0 0 0 0 0 0 0 0 0 0 0 0 0 0 0 0 0 0 0 0 0 0
6 7 7 16 38 51 53 50 41 24 9 1 0 0 0 0 0 0 0 0 0 0 0 0 0 0 0 0 0 0 0 0 0 0 0 0 0 0 0 0 0 0 0
11 13 13 28 57 71 68 56 38 21 9 2 0 0 0 0 0 0 0 0 0 0 0 0 0 0 0 0 0 0 0 0 0 0 0 0 0 0 0 0 0 0 0
10 11 14 34 68 89 89 75 47 25 12 4 0 0 0 0 0 0 0 0 0 0 0 0 0 0 0 0 0 0 0 0 0 0 0 0 0 0 0 0 0 0 0
4 5 9 25 55 83 95 87 63 35 18 9 4 3 1 0 0 0 0 0 0 0 0 0 0 0 0 0 0 0 0 0 0 0 0 0 0 0 0 0 0 0 0
1 1 3 11 30 57 78 84 73 47 25 16 13 9 3 0 0 0 0 0 0 0 0 0 0 0 0 0 0 0 0 0 0 0 0 0 0 0 0 0 0 0 0
0 0 1 3 12 28 48 65 68 50 28 18 17 13 5 0 0 0 0 0 0 0 0 0 0 0 0 0 0 0 0 0 0 0 0 0 0 0 0 0 0 0 0
0 0 0 0 3 9 21 37 49 43 24 14 12 9 3 0 0 0 0 0 0 0 0 0 0 0 0 0 0 0 0 0 0 0 0 0 0 0 0 0 0 0 0
0 0 0 0 1 3 8 19 34 34 20 9 7 4 1 0 0 0 0 0 0 0 0 0 0 0 0 0 0 0 0 0 0 0 0 0 0 0 0 0 0 0 0
Wind_Speed
3 1 2 3 2 2 2 3 4 4 3 3 4 4 5 5 6 7 8 7 6 6 5 6 5 5 6 6 6 5 6 5 4 3 3 6 10 11 10 9 9 9 9
4 4 4 3 2 2 3 4 3 4 4 4 3 4 5 5 6 6 7 8 8 7 7 7 6 6 6 7 7 6 5 5 5 4 2 3 6 10 12 8 8 7 5
5 6 4 2 1 1 3 4 3 3 5 5 5 6 5 6 7 7 6 8 8 8 8 8 7 7 7 7 7 8 9 7 5 5 4 3 4 4 5 4 3 3 3
2 2 1 2 3 3 4 3 3 4 4 5 6 8 8 9 8 7 6 7 8 9 9 9 8 7 7 7 8 8 7 7 5 3 3 4 4 3 4 4 3 3 2
2 1 2 2 3 5 5 5 5 4 4 5 7 8 10 9 8 8 8 8 7 8 8 8 6 7 6 7 7 6 5 4 4 3 2 3 5 6 5 5 4 3 3
4 4 3 2 2 4 4 5 5 6 6 7 8 9 10 10 11 11 10 8 6 6 8 7 6 6 5 6 5 4 4 3 2 2 2 2 3 3 4 4 3 4 3
4 4 3 3 3 4 4 4 5 6 7 8 9 9 9 9 10 9 9 8 7 6 6 7 6 6 5 5 4 3 3 3 3 3 2 3 4 3 3 3 3 3 3
5 3 3 3 2 3 3 4 5 6 8 9 9 8 8 6 5 7 7 7 6 6 6 7 7 7 6 5 4 3 3 3 3 4 4 3 3 3 3 2 1 2 2
6 7 5 3 4 4 3 3 4 6 8 8 8 6 5 5 5 5 5 5 4 4 4 5 6 6 6 5 4 3 4 4 4 5 5 3 2 2 1 1 1 1 2
9 8 4 4 4 3 1 1 1 3 5 5 5 4 5 5 6 6 7 6 6 5 3 1 2 3 3 3 3 4 4 5 4 4 3 2 1 0 1 1 1 0 1
13 8 4 4 3 3 2 2 2 2 2 3 3 4 4 5 6 6 7 7 7 8 7 5 2 2 3 4 4 5 5 6 5 4 5 4 4 3 3 2 2 2 2
9 7 5 3 3 3 4 3 3 3 2 1 2 2 3 4 5 6 7 7 7 7 7 6 4 1 1 2 3 5 5 6 6 6 6 5 5 5 4 3 4 3 3
8 6 4 4 4 3 4 4 4 4 4 4 3 2 1 2 4 4 5 5 6 6 6 6 5 3 4 4 5 6 7 8 8 7 7 7 7 6 4 5 5 4 3
8 6 4 3 3 3 3 4 4 4 5 5 4 3 1 1 2 3 3 3 3 3 4 4 4 4 5 5 7 8 9 9 9 9 9 8 6 5 5 6 6 5 4
11 7 4 3 2 3 4 5 5 5 5 5 5 4 3 2 1 2 1 1 1 1 1 3 4 4 6 6 6 7 9 8 8 8 7 7 8 9 7 6 6 7 7
12 8 5 3 3 4 4 5 4 4 5 5 5 5 5 4 2 2 2 2 1 1 2 3 4 6 7 11 12 8 7 7 7 6 6 8 8 6 6 8 9 8 7
10 8 6 4 3 4 4 4 4 5 5 5 5 6 7 5 4 3 3 3 2 2 3 6 7 7 8 13 12 10 7 8 8 8 8 8 10 9 6 1 3 5 8
12 10 7 6 5 5 6 6 6 5 5 5 6 7 8 7 5 3 3 3 3 3 4 6 7 6 7 11 12 9 7 6 6 7 8 8 8 10 10 7 8 6 5
12 9 9 8 6 5 6 6 6 6 6 6 6 8 9 8 7 5 4 3 4 4 4 6 6 6 4 8 11 10 3 5 8 9 9 8 7 12 13 8 7 7 6
15 12 10 8 6 6 6 6 7 7 7 6 7 9 10 10 9 6 5 4 5 4 4 5 6 5 4 5 8 9 2 3 6 7 8 10 8 9 10 6 6 6 6
18 17 14 8 6 6 7 8 7 7 7 6 7 9 10 10 9 7 5 5 5 4 4 6 5 5 5 5 7 8 4 2 2 6 6 4 6 7 8 6 4 5 6
20 19 16 13 8 7 8 9 9 7 6 6 7 9 10 11 11 9 7 6 6 6 5 5 5 4 4 4 6 7 8 6 6 6 6 4 4 5 6 5 8 11 9
20 18 16 15 14 9 8 11 9 7 6 6 7 8 10 9 8 11 10 8 6 6 6 6 6 5 5 5 6 6 9 11 7 5 6 5 3 2 3 3 6 7 6
18 17 17 16 15 14 10 10 9 8 7 7 7 8 8 8 8 9 9 9 9 7 6 7 6 6 6 5 4 4 4 6 5 5 4 3 2 2 4 4 2 1 3
16 15 14 15 14 14 15 13 11 9 9 8 8 9 9 9 9 9 7 8 7 7 8 7 6 7 6 5 6 4 3 2 2 3 3 3 3 3 3 2 2 4 4
15 15 16 16 15 12 14 14 11 11 10 9 9 9 8 8 8 8 7 6 3 7 11 9 8 7 10 14 13 12 10 8 5 1 3 5 5 4 2 2 4 5 4
Wind_Direction
95 71 291 291 274 294 300 279 275 287 285 279 275 270 270 272 275 276 271 268 262 248 229 246 238 225 239 239 223 214 222 223 217 230 264 273 271 259 247 236 235 238 238
160 186 217 239 261 300 318 304 295 313 303 286 285 272 272 270 263 257 264 261 259 255 247 237 246 242 243 242 232 223 225 225 210 199 216 261 270 263 254 230 220 228 234
167 175 187 175 244 322 312 309 337 316 304 308 296 282 273 263 260 251 244 238 239 239 239 243 244 246 244 243 234 225 227 229 220 202 199 220 235 295 302 301 258 228 226
149 138 71 34 337 333 324 333 320 291 283 283 279 281 280 275 273 272 264 251 240 238 237 239 239 240 241 243 241 232 225 227 228 224 217 235 265 272 297 302 316 347 333
212 250 278 296 313 326 333 328 314 307 296 279 272 272 271 271 273 274 271 261 252 241 238 233 234 238 240 241 240 238 219 214 216 221 234 240 250 242 250 276 299 326 313
246 243 254 279 312 323 320 319 333 332 323 306 292 278 274 275 277 280 281 278 265 246 232 224 226 232 232 234 233 222 200 185 207 237 250 255 249 241 236 257 284 289 283
278 281 300 308 300 297 298 319 336 335 325 313 305 296 288 283 279 280 281 280 273 257 233 220 214 215 213 210 197 193 181 177 200 228 252 260 257 258 245 243 263 277 284
277 284 284 268 291 309 328 353 355 338 329 322 316 314 312 307 306 304 297 288 279 266 246 223 214 209 205 201 190 188 192 192 206 229 232 239 247 250 240 243 280 298 302
297 290 281 324 356 352 4 3 353 340 334 332 333 340 353 357 348 339 326 315 304 288 262 224 212 207 201 198 186 197 204 196 198 212 218 217 219 231 260 286 286 318 345
308 311 343 355 353 348 344 320 337 330 333 337 341 3 12 16 13 14 11 2 357 352 354 273 191 181 179 178 179 195 193 173 177 186 174 151 130 90 266 252 226 106 39
329 325 337 334 329 318 279 217 237 269 306 333 351 3 11 17 18 19 15 15 18 18 23 20 47 119 155 170 175 175 164 155 153 147 124 102 66 40 25 2 24 43 47
325 317 314 320 318 299 274 247 231 236 236 258 307 345 2 13 19 22 18 15 16 14 12 9 352 312 140 145 130 123 119 113 103 93 88 84 73 58 34 7 26 35 50
320 313 304 297 297 284 270 264 247 233 222 221 241 269 327 22 29 28 25 16 9 5 359 350 344 20 63 76 82 82 84 83 82 80 74 65 55 40 16 33 30 27 24
315 302 280 270 286 279 265 262 257 237 230 219 227 232 239 58 67 59 44 18 354 348 347 352 16 47 62 69 76 77 76 76 72 68 65 62 56 37 19 46 28 20 15
312 299 278 264 259 259 252 254 245 237 237 229 227 215 196 186 152 124 130 140 308 355 25 59 55 56 54 57 73 90 90 86 88 87 83 75 71 61 53 60 41 35 34
310 308 304 289 261 245 249 250 240 231 228 233 227 201 189 189 173 164 162 151 159 155 137 109 81 70 62 47 53 77 83 84 83 88 101 92 60 56 71 79 66 57 52
321 319 308 288 250 232 230 233 232 228 227 230 218 192 187 187 185 190 157 148 149 132 103 92 87 80 56 49 47 60 80 74 67 58 52 60 43 27 7 72 124 78 64
320 311 301 290 261 228 217 215 221 223 226 223 208 191 184 182 184 179 153 159 131 106 98 99 98 93 67 48 40 40 87 85 78 70 71 66 42 21 6 27 33 36 39
302 285 273 266 258 239 226 219 215 216 226 223 201 188 184 181 180 179 168 152 129 128 123 116 112 102 79 51 40 25 78 91 79 67 59 67 51 22 19 28 24 17 7
315 298 278 257 236 226 220 221 221 213 218 215 193 183 182 181 182 181 175 159 144 156 145 131 129 128 114 67 48 25 356 117 116 107 85 67 61 38 26 22 21 12 344
328 330 317 278 231 213 206 215 225 223 214 205 185 179 182 184 183 179 178 166 164 164 155 143 141 141 128 99 59 39 21 344 145 131 108 83 62 46 22 15 24 348 315
331 335 335 321 276 222 207 212 219 220 213 201 185 178 179 190 187 180 181 178 172 159 152 150 148 134 128 104 89 67 47 29 61 81 100 107 75 41 11 8 1 356 355
327 330 332 330 314 272 223 218 214 209 216 204 185 177 183 197 180 178 182 179 176 175 172 172 170 158 136 112 110 93 71 70 82 92 110 122 107 9 314 323 349 7 18
321 324 328 327 328 315 268 230 216 205 210 206 182 175 180 184 178 180 184 185 184 184 185 185 179 159 147 153 159 151 124 113 125 131 128 149 184 273 297 295 302 79 48
311 314 316 320 320 326 306 258 221 209 209 203 184 178 179 176 175 181 183 190 188 188 188 190 174 161 164 157 160 169 150 140 105 143 162 201 213 224 234 204 107 75 51
307 310 313 314 317 317 317 295 244 212 205 202 188 185 180 175 173 168 147 60 109 165 183 170 155 148 141 136 122 113 107 97 94 131 229 227 217 195 164 104 106 97 71